| time (UTC) | temp F | wind direction | speed knots | gust knots | rain 1hr in | rain 24hr in | rain mn in | humidity % | barometer mb |
| 20260509222454 | 90 | 109 | 0.9 | 2.6 | 0.00 | 0.00 | 0.00 | 54 | 1008.0 |
| 20260509221954 | 91 | 150 | 1.7 | 1.7 | 0.00 | 0.00 | 0.00 | 54 | 1008.0 |
| 20260509221454 | 91 | 185 | 1.7 | 1.7 | 0.00 | 0.00 | 0.00 | 55 | 1008.0 |
| 20260509220954 | 91 | 125 | 1.7 | 3.5 | 0.00 | 0.00 | 0.00 | 54 | 1008.0 |
| 20260509220454 | 91 | 149 | 0.9 | 2.6 | 0.00 | 0.00 | 0.00 | 54 | 1008.0 |
| 20260509215954 | 91 | 178 | 1.7 | 2.6 | 0.00 | 0.00 | 0.00 | 51 | 1008.0 |
| 20260509215454 | 91 | 190 | 0.9 | 1.7 | 0.00 | 0.00 | 0.00 | 51 | 1008.0 |
| 20260509214954 | 91 | 192 | 1.7 | 2.6 | 0.00 | 0.00 | 0.00 | 48 | 1008.0 |
| 20260509214454 | 91 | 197 | 1.7 | 1.7 | 0.00 | 0.00 | 0.00 | 52 | 1008.0 |
| 20260509213954 | 91 | 132 | 0.9 | 1.7 | 0.00 | 0.00 | 0.00 | 49 | 1008.0 |
| 20260509213454 | 91 | 144 | 0.0 | 0.9 | 0.00 | 0.00 | 0.00 | 49 | 1008.0 |
| 20260509212954 | 90 | 304 | 0.0 | 0.9 | 0.00 | 0.00 | 0.00 | 50 | 1009.0 |
| 20260509212454 | 90 | 100 | 1.7 | 2.6 | 0.00 | 0.00 | 0.00 | 51 | 1009.0 |
| 20260509211954 | 91 | 101 | 0.9 | 1.7 | 0.00 | 0.00 | 0.00 | 53 | 1009.0 |
| 20260509211454 | 91 | 80 | 1.7 | 2.6 | 0.00 | 0.00 | 0.00 | 49 | 1009.0 |
| 20260509210955 | 91 | 74 | 0.9 | 2.6 | 0.00 | 0.00 | 0.00 | 52 | 1009.0 |
| 20260509210454 | 90 | 215 | 0.0 | 1.7 | 0.00 | 0.00 | 0.00 | 53 | 1009.0 |
| 20260509205954 | 90 | 223 | 0.0 | 1.7 | 0.00 | 0.00 | 0.00 | 51 | 1009.0 |
| 20260509205454 | 90 | 0 | 0.0 | 0.0 | 0.00 | 0.00 | 0.00 | 51 | 1009.0 |
| 20260509204954 | 90 | 111 | 0.9 | 1.7 | 0.00 | 0.00 | 0.00 | 49 | 1009.0 |
| 20260509204454 | 89 | 117 | 0.0 | 2.6 | 0.00 | 0.00 | 0.00 | 49 | 1009.0 |
| 20260509203954 | 89 | 177 | 0.9 | 3.5 | 0.00 | 0.00 | 0.00 | 48 | 1009.0 |
| 20260509203454 | 88 | 199 | 1.7 | 2.6 | 0.00 | 0.00 | 0.00 | 47 | 1009.0 |
| 20260509202954 | 87 | 192 | 0.9 | 2.6 | 0.00 | 0.00 | 0.00 | 47 | 1009.0 |
| 20260509202454 | 87 | 56 | 1.7 | 2.6 | 0.00 | 0.00 | 0.00 | 48 | 1009.0 |
| 20260509201954 | 87 | 86 | 0.9 | 2.6 | 0.00 | 0.00 | 0.00 | 53 | 1009.0 |
| 20260509201454 | 86 | 159 | 1.7 | 4.3 | 0.00 | 0.00 | 0.00 | 52 | 1010.0 |
| 20260509200955 | 86 | 197 | 1.7 | 3.5 | 0.00 | 0.00 | 0.00 | 54 | 1010.0 |
| 20260509200454 | 85 | 134 | 1.7 | 3.5 | 0.00 | 0.00 | 0.00 | 54 | 1010.0 |
| 20260509195955 | 85 | 89 | 1.7 | 5.2 | 0.00 | 0.00 | 0.00 | 52 | 1010.0 |
| 20260509195454 | 85 | 81 | 2.6 | 4.3 | 0.00 | 0.00 | 0.00 | 51 | 1010.0 |
| 20260509194954 | 86 | 166 | 2.6 | 4.3 | 0.00 | 0.00 | 0.00 | 59 | 1011.0 |
| 20260509194454 | 88 | 190 | 3.5 | 5.2 | 0.00 | 0.00 | 0.00 | 58 | 1011.0 |
| 20260509193954 | 89 | 279 | 0.9 | 2.6 | 0.00 | 0.00 | 0.00 | 60 | 1010.0 |
| 20260509193454 | 89 | 86 | 0.0 | 1.7 | 0.00 | 0.00 | 0.00 | 60 | 1010.0 |
| 20260509192954 | 89 | 78 | 0.9 | 2.6 | 0.00 | 0.00 | 0.00 | 60 | 1010.0 |
| 20260509192454 | 89 | 96 | 0.9 | 1.7 | 0.00 | 0.00 | 0.00 | 61 | 1010.0 |
| 20260509191954 | 89 | 290 | 1.7 | 3.5 | 0.00 | 0.00 | 0.00 | 59 | 1010.0 |
| 20260509191454 | 88 | 193 | 0.9 | 1.7 | 0.00 | 0.00 | 0.00 | 65 | 1010.0 |
| 20260509190954 | 88 | 304 | 1.7 | 4.3 | 0.00 | 0.00 | 0.00 | 63 | 1010.0 |
| 20260509190454 | 88 | 283 | 0.9 | 2.6 | 0.00 | 0.00 | 0.00 | 65 | 1010.0 |
| 20260509185955 | 88 | 317 | 1.7 | 4.3 | 0.00 | 0.00 | 0.00 | 64 | 1010.0 |
| 20260509185454 | 87 | 299 | 2.6 | 4.3 | 0.00 | 0.00 | 0.00 | 66 | 1010.0 |
| 20260509184954 | 87 | 316 | 2.6 | 6.1 | 0.00 | 0.00 | 0.00 | 66 | 1010.0 |
| 20260509184454 | 87 | 2 | 0.9 | 3.5 | 0.00 | 0.00 | 0.00 | 68 | 1010.0 |
| 20260509183954 | 87 | 338 | 1.7 | 2.6 | 0.00 | 0.00 | 0.00 | 68 | 1010.0 |
| 20260509183454 | 88 | 318 | 1.7 | 5.2 | 0.00 | 0.00 | 0.00 | 66 | 1010.0 |
| 20260509182954 | 88 | 24 | 0.0 | 1.7 | 0.00 | 0.00 | 0.00 | 64 | 1011.0 |
| 20260509182454 | 88 | 264 | 0.9 | 4.3 | 0.00 | 0.00 | 0.00 | 64 | 1010.0 |
| 20260509181955 | 88 | 264 | 0.9 | 2.6 | 0.00 | 0.00 | 0.00 | 65 | 1010.0 |
| 20260509181454 | 88 | 334 | 0.9 | 2.6 | 0.00 | 0.00 | 0.00 | 64 | 1011.0 |
| 20260509180954 | 88 | 297 | 0.9 | 2.6 | 0.00 | 0.00 | 0.00 | 66 | 1010.0 |
| 20260509180454 | 88 | 300 | 0.9 | 2.6 | 0.00 | 0.00 | 0.00 | 65 | 1011.0 |
| 20260509175954 | 87 | 209 | 1.7 | 3.5 | 0.00 | 0.00 | 0.00 | 67 | 1010.0 |
| 20260509175454 | 87 | 285 | 2.6 | 4.3 | 0.00 | 0.00 | 0.00 | 66 | 1011.0 |
| 20260509174954 | 86 | 213 | 0.9 | 1.7 | 0.00 | 0.00 | 0.00 | 68 | 1011.0 |
| 20260509174456 | 86 | 233 | 1.7 | 2.6 | 0.00 | 0.00 | 0.00 | 69 | 1011.0 |
| 20260509173954 | 86 | 236 | 1.7 | 3.5 | 0.00 | 0.00 | 0.00 | 68 | 1011.0 |
| 20260509173454 | 84 | 247 | 1.7 | 2.6 | 0.00 | 0.00 | 0.00 | 70 | 1010.0 |
| 20260509172954 | 84 | 222 | 1.7 | 2.6 | 0.00 | 0.00 | 0.00 | 71 | 1011.0 |
| 20260509172454 | 84 | 317 | 1.7 | 3.5 | 0.00 | 0.00 | 0.00 | 71 | 1011.0 |
| 20260509171954 | 85 | 237 | 2.6 | 3.5 | 0.00 | 0.00 | 0.00 | 70 | 1011.0 |
| 20260509171454 | 85 | 299 | 0.9 | 1.7 | 0.00 | 0.00 | 0.00 | 70 | 1011.0 |
| 20260509170954 | 85 | 214 | 1.7 | 3.5 | 0.00 | 0.00 | 0.00 | 70 | 1011.0 |
| 20260509170454 | 85 | 214 | 0.0 | 2.6 | 0.00 | 0.00 | 0.00 | 71 | 1011.0 |
| 20260509165955 | 84 | 218 | 3.5 | 5.2 | 0.00 | 0.00 | 0.00 | 72 | 1011.0 |
| 20260509165456 | 84 | 290 | 2.6 | 5.2 | 0.00 | 0.00 | 0.00 | 73 | 1012.0 |
| 20260509164954 | 84 | 6 | 0.9 | 2.6 | 0.00 | 0.00 | 0.00 | 74 | 1011.0 |
| 20260509164454 | 84 | 341 | 1.7 | 2.6 | 0.00 | 0.00 | 0.00 | 73 | 1011.0 |
| 20260509163954 | 83 | 251 | 1.7 | 2.6 | 0.00 | 0.00 | 0.00 | 74 | 1011.0 |
| 20260509163454 | 83 | 287 | 1.7 | 4.3 | 0.00 | 0.00 | 0.00 | 73 | 1012.0 |
| 20260509162954 | 83 | 246 | 1.7 | 3.5 | 0.00 | 0.00 | 0.00 | 75 | 1011.0 |
| 20260509162454 | 83 | 171 | 0.9 | 3.5 | 0.00 | 0.00 | 0.00 | 75 | 1011.0 |
| 20260509161954 | 82 | 238 | 3.5 | 6.1 | 0.00 | 0.00 | 0.00 | 75 | 1011.0 |
| 20260509161454 | 82 | 240 | 2.6 | 3.5 | 0.00 | 0.00 | 0.00 | 79 | 1011.0 |
| 20260509160954 | 82 | 244 | 1.7 | 4.3 | 0.00 | 0.00 | 0.00 | 79 | 1011.0 |
| 20260509160454 | 82 | 249 | 2.6 | 3.5 | 0.00 | 0.00 | 0.00 | 79 | 1011.0 |
| 20260509155956 | 81 | 176 | 2.6 | 5.2 | 0.00 | 0.00 | 0.00 | 79 | 1011.0 |
| 20260509155455 | 81 | 165 | 3.5 | 6.1 | 0.00 | 0.00 | 0.00 | 80 | 1011.0 |
| 20260509154954 | 80 | 189 | 4.3 | 7.8 | 0.00 | 0.00 | 0.00 | 81 | 1011.0 |
| 20260509154454 | 80 | 198 | 2.6 | 5.2 | 0.00 | 0.00 | 0.00 | 82 | 1011.0 |
| 20260509153954 | 80 | 175 | 3.5 | 6.1 | 0.00 | 0.00 | 0.00 | 82 | 1011.0 |
| 20260509153454 | 79 | 218 | 1.7 | 3.5 | 0.00 | 0.00 | 0.00 | 85 | 1011.0 |
| 20260509152954 | 78 | 186 | 3.5 | 6.1 | 0.00 | 0.00 | 0.00 | 85 | 1011.0 |
| 20260509152454 | 78 | 198 | 2.6 | 5.2 | 0.00 | 0.00 | 0.00 | 87 | 1011.0 |
| 20260509151955 | 78 | 191 | 3.5 | 6.1 | 0.00 | 0.00 | 0.00 | 87 | 1011.0 |
| 20260509151454 | 78 | 198 | 1.7 | 4.3 | 0.00 | 0.00 | 0.00 | 88 | 1011.0 |
| 20260509150955 | 78 | 176 | 2.6 | 5.2 | 0.00 | 0.00 | 0.00 | 87 | 1011.0 |
| 20260509150454 | 78 | 192 | 4.3 | 7.0 | 0.00 | 0.00 | 0.00 | 87 | 1011.0 |
| 20260509145954 | 78 | 187 | 3.5 | 6.1 | 0.00 | 0.00 | 0.00 | 87 | 1011.0 |
| 20260509145454 | 78 | 180 | 4.3 | 7.8 | 0.00 | 0.00 | 0.00 | 87 | 1011.0 |
| 20260509144954 | 78 | 176 | 3.5 | 7.0 | 0.00 | 0.00 | 0.00 | 87 | 1011.0 |
| 20260509144457 | 78 | 183 | 3.5 | 5.2 | 0.00 | 0.00 | 0.00 | 87 | 1011.0 |
| 20260509143954 | 78 | 176 | 3.5 | 5.2 | 0.00 | 0.00 | 0.00 | 87 | 1010.0 |
| 20260509143454 | 78 | 194 | 1.7 | 4.3 | 0.00 | 0.00 | 0.00 | 86 | 1011.0 |
| 20260509142954 | 78 | 178 | 3.5 | 6.1 | 0.00 | 0.00 | 0.00 | 86 | 1010.0 |
| 20260509142454 | 78 | 181 | 2.6 | 6.1 | 0.00 | 0.00 | 0.00 | 87 | 1010.0 |
| 20260509141955 | 77 | 189 | 3.5 | 6.1 | 0.00 | 0.00 | 0.00 | 88 | 1010.0 |
| 20260509141454 | 77 | 192 | 1.7 | 2.6 | 0.00 | 0.00 | 0.00 | 89 | 1010.0 |
| 20260509140955 | 76 | 173 | 1.7 | 3.5 | 0.00 | 0.00 | 0.00 | 90 | 1010.0 |
| 20260509140454 | 76 | 206 | 0.9 | 2.6 | 0.00 | 0.00 | 0.00 | 91 | 1010.0 |
| 20260509135955 | 76 | 182 | 2.6 | 5.2 | 0.00 | 0.00 | 0.00 | 92 | 1010.0 |
| 20260509135454 | 75 | 218 | 0.9 | 2.6 | 0.00 | 0.00 | 0.00 | 93 | 1010.0 |
| 20260509134954 | 75 | 171 | 0.9 | 1.7 | 0.00 | 0.00 | 0.00 | 95 | 1010.0 |
| 20260509134454 | 74 | 198 | 0.9 | 2.6 | 0.00 | 0.00 | 0.00 | 97 | 1010.0 |
| 20260509133954 | 74 | 191 | 1.7 | 2.6 | 0.00 | 0.00 | 0.00 | 98 | 1010.0 |
| 20260509133454 | 73 | 185 | 1.7 | 3.5 | 0.00 | 0.00 | 0.00 | 99 | 1010.0 |
| 20260509132954 | 73 | 179 | 2.6 | 3.5 | 0.00 | 0.00 | 0.00 | 99 | 1010.0 |
| 20260509132454 | 73 | 182 | 2.6 | 4.3 | 0.00 | 0.00 | 0.00 | 99 | 1010.0 |
| 20260509131955 | 73 | 201 | 0.9 | 1.7 | 0.00 | 0.00 | 0.00 | 99 | 1011.0 |
| 20260509131454 | 72 | 182 | 1.7 | 4.3 | 0.00 | 0.00 | 0.00 | 99 | 1011.0 |
| 20260509130954 | 72 | 193 | 0.9 | 1.7 | 0.00 | 0.00 | 0.00 | 99 | 1011.0 |
| 20260509130454 | 72 | 190 | 1.7 | 3.5 | 0.00 | 0.00 | 0.00 | 99 | 1011.0 |
| 20260509125954 | 72 | 179 | 1.7 | 3.5 | 0.00 | 0.00 | 0.00 | 99 | 1011.0 |
| 20260509125454 | 72 | 184 | 0.9 | 2.6 | 0.00 | 0.00 | 0.00 | 100 | 1011.0 |
| 20260509124954 | 72 | 172 | 0.9 | 2.6 | 0.00 | 0.00 | 0.00 | 99 | 1011.0 |
| 20260509124455 | 72 | 224 | 0.9 | 1.7 | 0.00 | 0.00 | 0.00 | 99 | 1011.0 |
| 20260509123954 | 72 | 207 | 0.9 | 0.9 | 0.00 | 0.00 | 0.00 | 99 | 1011.0 |
| 20260509123454 | 72 | 219 | 0.0 | 0.9 | 0.00 | 0.00 | 0.00 | 99 | 1011.0 |
| 20260509122954 | 71 | 0 | 0.0 | 0.0 | 0.00 | 0.00 | 0.00 | 99 | 1011.0 |
| 20260509122454 | 71 | 6 | 0.0 | 0.9 | 0.00 | 0.00 | 0.00 | 99 | 1011.0 |
| 20260509121954 | 71 | 308 | 0.0 | 1.7 | 0.00 | 0.00 | 0.00 | 99 | 1011.0 |
| 20260509121454 | 71 | 245 | 0.9 | 2.6 | 0.00 | 0.00 | 0.00 | 99 | 1011.0 |
| 20260509120954 | 71 | 325 | 0.9 | 1.7 | 0.00 | 0.00 | 0.00 | 99 | 1011.0 |
| 20260509120454 | 71 | 303 | 0.0 | 1.7 | 0.00 | 0.00 | 0.00 | 99 | 1011.0 |
| 20260509115955 | 71 | 152 | 0.0 | 0.9 | 0.00 | 0.00 | 0.00 | 99 | 1011.0 |
| 20260509115454 | 71 | 0 | 0.0 | 0.0 | 0.00 | 0.00 | 0.00 | 99 | 1011.0 |
| 20260509114954 | 72 | 0 | 0.0 | 0.0 | 0.00 | 0.00 | 0.00 | 99 | 1011.0 |
| 20260509114455 | 72 | 0 | 0.0 | 0.0 | 0.00 | 0.00 | 0.00 | 99 | 1011.0 |
| 20260509113955 | 72 | 108 | 0.0 | 0.9 | 0.00 | 0.00 | 0.00 | 99 | 1011.0 |
| 20260509113454 | 72 | 194 | 0.0 | 1.7 | 0.00 | 0.00 | 0.00 | 99 | 1011.0 |
| 20260509112954 | 72 | 0 | 0.0 | 0.0 | 0.00 | 0.00 | 0.00 | 99 | 1012.0 |
| 20260509112454 | 72 | 220 | 0.0 | 0.0 | 0.00 | 0.00 | 0.00 | 99 | 1012.0 |
| 20260509111954 | 72 | 295 | 0.0 | 0.9 | 0.00 | 0.00 | 0.00 | 99 | 1012.0 |
| 20260509111454 | 72 | 351 | 0.0 | 0.9 | 0.00 | 0.00 | 0.00 | 99 | 1012.0 |
| 20260509110954 | 72 | 358 | 0.0 | 2.6 | 0.00 | 0.00 | 0.00 | 99 | 1012.0 |
| 20260509110454 | 72 | 353 | 0.9 | 1.7 | 0.00 | 0.00 | 0.00 | 99 | 1012.0 |
| 20260509105954 | 72 | 329 | 0.0 | 1.7 | 0.00 | 0.00 | 0.00 | 99 | 1012.0 |
| 20260509105455 | 72 | 296 | 1.7 | 2.6 | 0.00 | 0.00 | 0.00 | 99 | 1012.0 |
| 20260509104954 | 72 | 322 | 0.0 | 1.7 | 0.00 | 0.00 | 0.00 | 99 | 1012.0 |
| 20260509104454 | 72 | 321 | 0.0 | 0.9 | 0.00 | 0.00 | 0.00 | 99 | 1012.0 |
| 20260509103954 | 72 | 285 | 0.0 | 0.9 | 0.00 | 0.00 | 0.00 | 99 | 1012.0 |
| 20260509103455 | 72 | 337 | 0.0 | 0.0 | 0.00 | 0.00 | 0.00 | 99 | 1012.0 |
| 20260509102957 | 72 | 297 | 0.0 | 0.9 | 0.00 | 0.00 | 0.00 | 99 | 1012.0 |
| 20260509102454 | 72 | 0 | 0.0 | 0.0 | 0.00 | 0.00 | 0.00 | 99 | 1012.0 |
| 20260509101954 | 72 | 345 | 0.0 | 0.9 | 0.00 | 0.00 | 0.00 | 99 | 1012.0 |
| 20260509101454 | 72 | 1 | 0.0 | 0.0 | 0.00 | 0.00 | 0.00 | 99 | 1012.0 |
| 20260509100954 | 72 | 8 | 0.0 | 0.9 | 0.00 | 0.00 | 0.00 | 99 | 1012.0 |
| 20260509100454 | 72 | 322 | 0.0 | 1.7 | 0.00 | 0.00 | 0.00 | 99 | 1012.0 |
| 20260509095954 | 72 | 339 | 0.0 | 0.9 | 0.00 | 0.00 | 0.00 | 99 | 1011.0 |
| 20260509095454 | 72 | 206 | 0.0 | 0.0 | 0.00 | 0.00 | 0.00 | 99 | 1011.0 |
| 20260509094954 | 72 | 39 | 0.0 | 0.9 | 0.00 | 0.00 | 0.00 | 99 | 1011.0 |
| 20260509094454 | 72 | 0 | 0.0 | 0.0 | 0.00 | 0.00 | 0.00 | 99 | 1011.0 |
| 20260509093954 | 72 | 0 | 0.0 | 0.0 | 0.00 | 0.00 | 0.00 | 99 | 1011.0 |
| 20260509093454 | 72 | 324 | 0.0 | 0.9 | 0.00 | 0.00 | 0.00 | 99 | 1011.0 |
| 20260509092954 | 72 | 220 | 0.0 | 1.7 | 0.00 | 0.00 | 0.00 | 99 | 1010.0 |
| 20260509092453 | 72 | 223 | 0.0 | 0.9 | 0.00 | 0.00 | 0.00 | 99 | 1010.0 |
| 20260509091955 | 72 | 208 | 0.0 | 0.9 | 0.00 | 0.00 | 0.00 | 99 | 1010.0 |
| 20260509091454 | 72 | 224 | 0.0 | 0.9 | 0.00 | 0.00 | 0.00 | 99 | 1010.0 |
| 20260509090954 | 72 | 69 | 0.0 | 0.9 | 0.00 | 0.00 | 0.00 | 98 | 1010.0 |
| 20260509090453 | 72 | 190 | 0.0 | 0.9 | 0.00 | 0.00 | 0.00 | 98 | 1010.0 |
| 20260509085954 | 72 | 227 | 0.0 | 0.9 | 0.00 | 0.00 | 0.00 | 98 | 1010.0 |
| 20260509085454 | 72 | 147 | 0.0 | 0.0 | 0.00 | 0.00 | 0.00 | 98 | 1010.0 |
| 20260509084955 | 72 | 306 | 0.0 | 0.0 | 0.00 | 0.00 | 0.00 | 98 | 1011.0 |
| 20260509084454 | 72 | 0 | 0.0 | 0.0 | 0.00 | 0.00 | 0.00 | 98 | 1011.0 |
| 20260509083954 | 72 | 34 | 0.0 | 0.0 | 0.00 | 0.00 | 0.00 | 98 | 1011.0 |
| 20260509083454 | 72 | 0 | 0.0 | 0.0 | 0.00 | 0.00 | 0.00 | 98 | 1011.0 |
| 20260509082954 | 72 | 45 | 0.0 | 1.7 | 0.00 | 0.00 | 0.00 | 98 | 1011.0 |
| 20260509082454 | 72 | 108 | 0.0 | 0.9 | 0.00 | 0.00 | 0.00 | 98 | 1011.0 |
| 20260509081954 | 72 | 234 | 0.0 | 0.9 | 0.00 | 0.00 | 0.00 | 98 | 1011.0 |
| 20260509081454 | 72 | 215 | 0.0 | 1.7 | 0.00 | 0.00 | 0.00 | 98 | 1011.0 |
| 20260509080954 | 72 | 327 | 0.0 | 0.9 | 0.00 | 0.00 | 0.00 | 98 | 1011.0 |
| 20260509080454 | 72 | 239 | 0.0 | 0.0 | 0.00 | 0.00 | 0.00 | 98 | 1011.0 |
| 20260509075954 | 72 | 78 | 0.0 | 0.0 | 0.00 | 0.00 | 0.00 | 98 | 1011.0 |
| 20260509075454 | 72 | 55 | 0.0 | 0.0 | 0.00 | 0.00 | 0.00 | 98 | 1011.0 |
| 20260509074955 | 72 | 56 | 0.0 | 0.9 | 0.00 | 0.00 | 0.00 | 97 | 1011.0 |
| 20260509074454 | 72 | 57 | 0.0 | 0.9 | 0.00 | 0.00 | 0.00 | 97 | 1011.0 |
| 20260509073954 | 72 | 84 | 0.0 | 0.9 | 0.00 | 0.00 | 0.00 | 97 | 1011.0 |
| 20260509073454 | 72 | 69 | 0.0 | 0.9 | 0.00 | 0.00 | 0.00 | 97 | 1011.0 |
| 20260509072955 | 72 | 46 | 0.0 | 0.9 | 0.00 | 0.00 | 0.00 | 97 | 1011.0 |
| 20260509072453 | 72 | 88 | 0.9 | 1.7 | 0.00 | 0.00 | 0.00 | 97 | 1011.0 |
| 20260509071954 | 72 | 57 | 0.0 | 0.9 | 0.00 | 0.00 | 0.00 | 97 | 1012.0 |
| 20260509071454 | 72 | 150 | 0.0 | 0.9 | 0.00 | 0.00 | 0.00 | 97 | 1012.0 |
| 20260509070954 | 72 | 227 | 0.0 | 0.9 | 0.00 | 0.00 | 0.00 | 97 | 1012.0 |
| 20260509070455 | 72 | 0 | 0.0 | 0.0 | 0.00 | 0.00 | 0.00 | 96 | 1012.0 |
| 20260509065954 | 72 | 293 | 0.0 | 0.9 | 0.00 | 0.00 | 0.00 | 96 | 1012.0 |
| 20260509065454 | 72 | 70 | 0.9 | 1.7 | 0.00 | 0.00 | 0.00 | 96 | 1011.0 |
| 20260509064956 | 72 | 84 | 0.0 | 0.9 | 0.00 | 0.00 | 0.00 | 96 | 1011.0 |
| 20260509064454 | 72 | 82 | 0.9 | 2.6 | 0.00 | 0.00 | 0.00 | 96 | 1011.0 |
| 20260509063954 | 72 | 111 | 0.9 | 1.7 | 0.00 | 0.00 | 0.00 | 96 | 1011.0 |
| 20260509063454 | 73 | 77 | 0.0 | 0.9 | 0.00 | 0.00 | 0.00 | 95 | 1011.0 |
| 20260509062954 | 73 | 190 | 0.0 | 0.9 | 0.00 | 0.00 | 0.00 | 95 | 1011.0 |
| 20260509062454 | 73 | 96 | 1.7 | 2.6 | 0.00 | 0.00 | 0.00 | 95 | 1011.0 |
| 20260509061954 | 73 | 86 | 0.9 | 2.6 | 0.00 | 0.00 | 0.00 | 95 | 1011.0 |
| 20260509061454 | 73 | 206 | 0.0 | 0.9 | 0.00 | 0.00 | 0.00 | 94 | 1011.0 |
| 20260509060954 | 73 | 0 | 0.0 | 0.0 | 0.00 | 0.00 | 0.00 | 94 | 1011.0 |
| 20260509060454 | 73 | 85 | 1.7 | 3.5 | 0.00 | 0.00 | 0.00 | 94 | 1011.0 |
| 20260509055954 | 73 | 100 | 0.9 | 1.7 | 0.00 | 0.00 | 0.00 | 94 | 1011.0 |
| 20260509055458 | 73 | 104 | 1.7 | 2.6 | 0.00 | 0.00 | 0.00 | 93 | 1011.0 |
| 20260509054954 | 73 | 124 | 1.7 | 3.5 | 0.00 | 0.00 | 0.00 | 93 | 1011.0 |
| 20260509054455 | 74 | 194 | 1.7 | 2.6 | 0.00 | 0.00 | 0.00 | 93 | 1011.0 |
| 20260509053954 | 74 | 158 | 1.7 | 2.6 | 0.00 | 0.00 | 0.00 | 92 | 1010.0 |
| 20260509053454 | 74 | 130 | 1.7 | 5.2 | 0.00 | 0.00 | 0.00 | 92 | 1010.0 |
| 20260509052954 | 74 | 132 | 0.9 | 2.6 | 0.00 | 0.00 | 0.00 | 91 | 1010.0 |
| 20260509052454 | 74 | 103 | 0.9 | 4.3 | 0.00 | 0.00 | 0.00 | 91 | 1010.0 |
| 20260509051954 | 74 | 171 | 0.9 | 1.7 | 0.00 | 0.00 | 0.00 | 91 | 1010.0 |
| 20260509051454 | 74 | 193 | 0.0 | 1.7 | 0.00 | 0.00 | 0.00 | 91 | 1010.0 |
| 20260509050954 | 74 | 144 | 0.0 | 0.9 | 0.00 | 0.00 | 0.00 | 90 | 1010.0 |
| 20260509050454 | 74 | 113 | 0.9 | 1.7 | 0.00 | 0.00 | 0.00 | 90 | 1010.0 |
| 20260509045954 | 74 | 106 | 0.9 | 1.7 | 0.00 | 0.00 | 0.00 | 90 | 1010.0 |
| 20260509045454 | 74 | 200 | 0.0 | 0.9 | 0.00 | 0.00 | 0.00 | 90 | 1010.0 |
| 20260509044954 | 74 | 81 | 0.9 | 1.7 | 0.00 | 0.00 | 0.00 | 90 | 1010.0 |
| 20260509044456 | 74 | 100 | 0.9 | 2.6 | 0.00 | 0.00 | 0.00 | 90 | 1010.0 |
| 20260509043954 | 74 | 151 | 0.9 | 2.6 | 0.00 | 0.00 | 0.00 | 90 | 1010.0 |
| 20260509043454 | 74 | 221 | 0.0 | 0.9 | 0.00 | 0.00 | 0.00 | 90 | 1010.0 |
| 20260509042954 | 74 | 88 | 0.0 | 1.7 | 0.00 | 0.00 | 0.00 | 89 | 1010.0 |
| 20260509042454 | 74 | 109 | 0.9 | 3.5 | 0.00 | 0.00 | 0.00 | 89 | 1010.0 |
| 20260509041956 | 74 | 186 | 0.9 | 1.7 | 0.00 | 0.00 | 0.00 | 89 | 1010.0 |
| 20260509041455 | 74 | 174 | 0.9 | 1.7 | 0.00 | 0.00 | 0.00 | 89 | 1010.0 |
| 20260509040954 | 74 | 172 | 0.0 | 1.7 | 0.00 | 0.00 | 0.00 | 89 | 1010.0 |
| 20260509040454 | 74 | 84 | 0.0 | 0.9 | 0.00 | 0.00 | 0.00 | 89 | 1010.0 |
| 20260509035954 | 74 | 70 | 0.9 | 1.7 | 0.00 | 0.00 | 0.00 | 89 | 1010.0 |
| 20260509035454 | 74 | 0 | 0.0 | 0.0 | 0.00 | 0.00 | 0.00 | 90 | 1010.0 |
| 20260509034954 | 74 | 211 | 0.0 | 0.9 | 0.00 | 0.00 | 0.00 | 90 | 1010.0 |
| 20260509034454 | 74 | 129 | 0.0 | 0.9 | 0.00 | 0.00 | 0.00 | 90 | 1010.0 |
| 20260509033954 | 74 | 308 | 0.0 | 0.9 | 0.00 | 0.00 | 0.00 | 90 | 1010.0 |
| 20260509033454 | 73 | 96 | 0.9 | 1.7 | 0.00 | 0.00 | 0.00 | 90 | 1010.0 |
| 20260509032954 | 73 | 214 | 0.0 | 0.9 | 0.00 | 0.00 | 0.00 | 90 | 1010.0 |
| 20260509032457 | 73 | 70 | 0.0 | 1.7 | 0.00 | 0.00 | 0.00 | 90 | 1010.0 |
| 20260509031954 | 73 | 59 | 0.0 | 0.9 | 0.00 | 0.00 | 0.00 | 90 | 1010.0 |
| 20260509031455 | 74 | 0 | 0.0 | 0.0 | 0.00 | 0.00 | 0.00 | 89 | 1010.0 |
| 20260509030954 | 74 | 288 | 0.0 | 0.9 | 0.00 | 0.00 | 0.00 | 89 | 1010.0 |
| 20260509030459 | 74 | 196 | 0.0 | 1.7 | 0.00 | 0.00 | 0.00 | 88 | 1010.0 |
| 20260509025954 | 74 | 62 | 0.0 | 0.9 | 0.00 | 0.00 | 0.00 | 88 | 1010.0 |
| 20260509025455 | 74 | 88 | 0.0 | 1.7 | 0.00 | 0.00 | 0.00 | 88 | 1010.0 |
| 20260509024954 | 74 | 119 | 0.0 | 0.9 | 0.00 | 0.00 | 0.00 | 87 | 1010.0 |
| 20260509024454 | 74 | 73 | 0.0 | 0.9 | 0.00 | 0.00 | 0.00 | 87 | 1010.0 |
| 20260509023954 | 74 | 178 | 0.0 | 0.9 | 0.00 | 0.00 | 0.00 | 87 | 1010.0 |
| 20260509023455 | 75 | 94 | 0.0 | 1.7 | 0.00 | 0.00 | 0.00 | 87 | 1010.0 |
| 20260509022954 | 75 | 52 | 0.0 | 0.9 | 0.00 | 0.00 | 0.00 | 86 | 1010.0 |
| 20260509022455 | 75 | 55 | 0.0 | 0.9 | 0.00 | 0.00 | 0.00 | 86 | 1010.0 |
| 20260509021954 | 75 | 89 | 0.0 | 0.9 | 0.00 | 0.00 | 0.00 | 86 | 1010.0 |
| 20260509021454 | 75 | 64 | 0.0 | 0.9 | 0.00 | 0.00 | 0.00 | 85 | 1010.0 |
| 20260509020954 | 76 | 64 | 0.9 | 2.6 | 0.00 | 0.00 | 0.00 | 85 | 1010.0 |
| 20260509020454 | 76 | 121 | 0.9 | 1.7 | 0.00 | 0.00 | 0.00 | 84 | 1009.0 |
| 20260509015954 | 76 | 98 | 0.9 | 2.6 | 0.00 | 0.00 | 0.00 | 84 | 1009.0 |
| 20260509015455 | 76 | 96 | 0.0 | 1.7 | 0.00 | 0.00 | 0.00 | 84 | 1010.0 |
| 20260509014954 | 76 | 94 | 0.9 | 2.6 | 0.00 | 0.00 | 0.00 | 84 | 1009.0 |
| 20260509014454 | 76 | 121 | 0.9 | 1.7 | 0.00 | 0.00 | 0.00 | 83 | 1009.0 |
| 20260509013955 | 76 | 72 | 0.0 | 0.9 | 0.00 | 0.00 | 0.00 | 83 | 1009.0 |
| 20260509013454 | 77 | 76 | 1.7 | 5.2 | 0.00 | 0.00 | 0.00 | 82 | 1009.0 |
| 20260509012954 | 77 | 136 | 0.0 | 1.7 | 0.00 | 0.00 | 0.00 | 83 | 1009.0 |
| 20260509012454 | 77 | 128 | 0.9 | 3.5 | 0.00 | 0.00 | 0.00 | 83 | 1009.0 |
| 20260509011954 | 77 | 83 | 0.9 | 2.6 | 0.00 | 0.00 | 0.00 | 82 | 1009.0 |
| 20260509011454 | 77 | 99 | 0.9 | 1.7 | 0.00 | 0.00 | 0.00 | 82 | 1009.0 |
| 20260509010954 | 77 | 91 | 0.9 | 2.6 | 0.00 | 0.00 | 0.00 | 82 | 1009.0 |
| 20260509010454 | 77 | 70 | 1.7 | 2.6 | 0.00 | 0.00 | 0.00 | 82 | 1009.0 |
| 20260509005954 | 77 | 76 | 0.9 | 2.6 | 0.00 | 0.00 | 0.00 | 82 | 1009.0 |
| 20260509005454 | 77 | 93 | 0.9 | 3.5 | 0.00 | 0.00 | 0.00 | 82 | 1009.0 |
| 20260509004954 | 77 | 110 | 0.9 | 2.6 | 0.00 | 0.00 | 0.00 | 81 | 1009.0 |
| 20260509004454 | 78 | 81 | 0.9 | 2.6 | 0.00 | 0.00 | 0.00 | 81 | 1009.0 |
| 20260509003954 | 78 | 90 | 0.9 | 1.7 | 0.00 | 0.00 | 0.00 | 81 | 1009.0 |
| 20260509003454 | 78 | 83 | 1.7 | 3.5 | 0.00 | 0.00 | 0.00 | 80 | 1009.0 |
| 20260509002954 | 78 | 72 | 0.9 | 2.6 | 0.00 | 0.00 | 0.00 | 80 | 1009.0 |
| 20260509002454 | 78 | 98 | 1.7 | 2.6 | 0.00 | 0.00 | 0.00 | 80 | 1009.0 |
| 20260509001954 | 78 | 88 | 1.7 | 3.5 | 0.00 | 0.00 | 0.00 | 80 | 1009.0 |
| 20260509001454 | 78 | 91 | 1.7 | 2.6 | 0.00 | 0.00 | 0.00 | 79 | 1009.0 |
| 20260509000954 | 78 | 89 | 1.7 | 1.7 | 0.00 | 0.00 | 0.00 | 79 | 1009.0 |
| 20260509000455 | 78 | 98 | 0.9 | 1.7 | 0.00 | 0.00 | 0.00 | 79 | 1009.0 |
| 20260508235954 | 78 | 73 | 1.7 | 1.7 | 0.00 | 0.00 | 0.00 | 79 | 1009.0 |
| 20260508235454 | 78 | 64 | 0.9 | 1.7 | 0.00 | 0.00 | 0.00 | 78 | 1009.0 |
| 20260508234954 | 78 | 64 | 0.9 | 2.6 | 0.00 | 0.00 | 0.00 | 78 | 1009.0 |
| 20260508234454 | 78 | 76 | 0.9 | 3.5 | 0.00 | 0.00 | 0.00 | 78 | 1009.0 |
| 20260508233955 | 78 | 93 | 0.9 | 1.7 | 0.00 | 0.00 | 0.00 | 78 | 1009.0 |
| 20260508233454 | 78 | 84 | 1.7 | 4.3 | 0.00 | 0.00 | 0.00 | 78 | 1009.0 |
| 20260508232954 | 78 | 88 | 1.7 | 3.5 | 0.00 | 0.00 | 0.00 | 78 | 1009.0 |
| 20260508232454 | 78 | 112 | 0.0 | 1.7 | 0.00 | 0.00 | 0.00 | 78 | 1009.0 |
| 20260508231955 | 78 | 76 | 0.0 | 0.9 | 0.00 | 0.00 | 0.00 | 78 | 1009.0 |
| 20260508231454 | 78 | 73 | 1.7 | 1.7 | 0.00 | 0.00 | 0.00 | 78 | 1009.0 |
| 20260508230954 | 78 | 68 | 0.0 | 0.9 | 0.00 | 0.00 | 0.00 | 78 | 1009.0 |
| 20260508230454 | 78 | 79 | 1.7 | 4.3 | 0.00 | 0.00 | 0.00 | 77 | 1009.0 |
| 20260508225954 | 78 | 84 | 1.7 | 2.6 | 0.00 | 0.00 | 0.00 | 77 | 1009.0 |
| 20260508225454 | 78 | 74 | 0.9 | 3.5 | 0.00 | 0.00 | 0.00 | 77 | 1009.0 |
| 20260508224954 | 78 | 109 | 0.9 | 2.6 | 0.00 | 0.00 | 0.00 | 78 | 1009.0 |
| 20260508224454 | 79 | 67 | 0.9 | 1.7 | 0.00 | 0.00 | 0.00 | 77 | 1009.0 |
| 20260508223954 | 79 | 71 | 1.7 | 3.5 | 0.00 | 0.00 | 0.00 | 77 | 1009.0 |
| 20260508223454 | 79 | 88 | 1.7 | 5.2 | 0.00 | 0.00 | 0.00 | 76 | 1009.0 |
| 20260508222955 | 79 | 87 | 1.7 | 2.6 | 0.00 | 0.00 | 0.00 | 77 | 1009.0 |